Location: Anmer
(52.8333°N, 0.5833°E)
Time: 11:24:20
(UTC+00:00)

Cosmos 1606 Rocket - Pass Details

Date: 15 May 2026
Orbit: 595 x 625 km, 82.5° (Epoch: 6 June)

Event Time Altitude Azimuth Distance (km) Brightness Sun altitude
Exits shadow 21:17:14 13° 161° (SSE) 1,748 5.3 -10.5°
Maximum altitude 21:20:46 42° 93° (E) 864 4.0 -10.8°
Drops below altitude 10° 21:24:51 10° 23° (NNE) 1,955 6.6 -11.2°
Sets 21:27:08 0° 16° (NNE) 2,860 7.6 -11.4°
